Weather reports worldwide

Advertisment
Koivu-Mankkaa, Finland (2985): temperature & dewpoint: 19.05.2018 06:00:00 - 25.05.2018 06:00:00 (EEST)Koivu-Mankkaa, Finland (2985): wind speed & gusts: 19.05.2018 06:00:00 - 25.05.2018 06:00:00 (EEST)Koivu-Mankkaa, Finland (2985): wind direction: 19.05.2018 06:00:00 - 25.05.2018 06:00:00 (EEST)Koivu-Mankkaa, Finland (2985): reduced air pressure: 19.05.2018 06:00:00 - 25.05.2018 06:00:00 (EEST)Koivu-Mankkaa, Finland (2985): visibility: 19.05.2018 06:00:00 - 25.05.2018 06:00:00 (EEST)Koivu-Mankkaa, Finland (2985): precipitation: 19.05.2018 06:00:00 - 25.05.2018 06:00:00 (EEST)
Date & Time tt [°C] td [°C] ff [km/h] ff [kn] fx [km/h] fx [kn] dd ppp [hPa] vv [km] rr [mm]
25.05.2018 06:00:00 6,1 5,2 5 3 7 4 NE 1031,0 27 0,0
25.05.2018 05:00:00 5,4 4,6 4 2 5 3 NNE 1030,7 26 0,0
25.05.2018 04:00:00 5,7 5,0 4 2 5 3 N 1030,6 27 0,0
25.05.2018 03:00:00 6,3 5,2 4 2 6 3 NE 1030,5 28 0,0
25.05.2018 02:00:00 7,0 5,4 2 1 3 2 ENE 1030,3 33 0,0
25.05.2018 01:00:00 7,8 5,4 0 0 5 3 N 1030,2 40 0,0
25.05.2018 00:00:00 8,6 5,7 0 0 5 3 N 1030,1 36 0,0
24.05.2018 23:00:00 10,2 4,9 4 2 7 4 ESE 1029,6 40 0,0
24.05.2018 22:00:00 11,9 6,7 2 1 9 5 SSW 1029,2 39 0,0
24.05.2018 21:00:00 14,5 5,5 4 2 13 7 S 1029,1 42 0,0
24.05.2018 20:00:00 15,3 3,9 7 4 17 9 SE 1028,9 34 0,0
24.05.2018 19:00:00 15,4 4,6 10 5 22 12 SSE 1029,1 38 0,0
24.05.2018 18:00:00 15,7 6,7 14 8 27 15 SE 1029,2 33 0,0
24.05.2018 17:00:00 16,7 5,6 13 7 25 14 SE 1029,2 27 0,0
24.05.2018 16:00:00 16,8 5,2 16 9 27 15 SE 1029,3 33 0,0
24.05.2018 15:00:00 17,2 7,1 16 8 27 15 SE 1029,5 31 0,0
24.05.2018 14:00:00 16,0 7,7 11 6 33 18 SE 1029,7 33 0,0
24.05.2018 13:00:00 18,5 6,4 14 7 26 14 ENE 1029,2 25 0,0
24.05.2018 12:00:00 18,7 3,1 16 9 34 18 NNE 1028,9 26 0,0
24.05.2018 11:00:00 17,9 1,0 18 10 29 16 N 1028,9 31 0,0
24.05.2018 10:00:00 16,8 3,0 11 6 22 12 N 1028,6 29 0,0
24.05.2018 09:00:00 14,2 2,5 16 8 23 12 N 1028,3 30 0,0
24.05.2018 08:00:00 12,5 2,4 11 6 23 13 N 1028,2 32 0,0
24.05.2018 07:00:00 11,0 1,1 13 7 24 13 N 1028,1 36 0,0
24.05.2018 06:00:00 10,2 0,2 14 8 22 12 N 1027,6 38 0,0
24.05.2018 05:00:00 10,3 0,1 11 6 23 12 N 1027,1 38 0,0
24.05.2018 04:00:00 11,3 0,2 12 7 26 14 N 1026,7 42 0,0
24.05.2018 03:00:00 12,8 0,5 14 8 27 15 N 1026,3 41 0,0
24.05.2018 02:00:00 14,1 1,2 18 10 27 15 N 1025,8 43 0,0
24.05.2018 01:00:00 15,7 3,1 17 9 26 14 N 1025,2 40 0,0
24.05.2018 00:00:00 16,6 5,7 14 7 24 13 N 1024,9 43 0,0
23.05.2018 23:00:00 18,0 6,3 14 7 22 12 N 1024,1 34 0,0
23.05.2018 22:00:00 20,0 7,0 16 9 29 16 N 1023,2 33 0,0
23.05.2018 21:00:00 22,0 7,4 16 9 34 19 N 1022,4 26 0,0
23.05.2018 20:00:00 23,3 8,8 19 10 32 17 NNW 1021,6 27 0,0
23.05.2018 19:00:00 23,7 5,7 19 10 36 19 NNW 1021,1 25 0,0
23.05.2018 18:00:00 24,8 5,1 12 7 39 21 WNW 1020,8 29 0,0
23.05.2018 17:00:00 24,6 9,1 17 9 27 15 SW 1020,9 24 0,0
23.05.2018 16:00:00 22,4 7,2 15 8 25 14 W 1021,0 30 0,0
23.05.2018 15:00:00 21,7 6,4 15 8 41 22 WNW 1021,1 31 0,0
23.05.2018 14:00:00 22,8 5,8 22 12 37 20 NW 1020,8 26 0,0
23.05.2018 13:00:00 21,5 6,0 24 13 36 19 NW 1020,4 26 0,0
23.05.2018 12:00:00 20,6 7,6 16 9 27 14 WNW 1020,1 31 0,0
23.05.2018 11:00:00 19,0 7,5 14 8 26 14 NW 1019,9 20 0,0
23.05.2018 10:00:00 18,7 8,6 10 6 19 10 WNW 1019,3 28 0,0
23.05.2018 09:00:00 17,0 8,6 9 5 17 9 WNW 1018,8 27 0,0
23.05.2018 08:00:00 15,4 8,3 10 5 13 7 WNW 1018,6 32 0,0
23.05.2018 07:00:00 12,4 9,0 8 4 15 8 WNW 1018,2 25 0,0
23.05.2018 06:00:00 10,6 9,0 9 5 11 6 WNW 1017,6 28 0,0
23.05.2018 05:00:00 10,1 8,4 9 5 11 6 W 1017,5 30 0,0
23.05.2018 04:00:00 10,6 8,9 10 5 13 7 NW 1017,4 27 0,0
23.05.2018 03:00:00 11,1 8,4 6 3 14 7 N 1017,6 32 0,0
23.05.2018 02:00:00 12,6 9,0 8 4 13 7 NNW 1017,7 31 0,0
23.05.2018 01:00:00 12,7 8,8 9 5 10 6 NNW 1017,9 30 0,0
23.05.2018 00:00:00 13,3 8,2 2 1 13 7 NE 1017,7 34 0,0
22.05.2018 23:00:00 14,2 8,3 4 2 11 6 S 1018,0 34 0,0
22.05.2018 22:00:00 15,7 8,2 5 3 10 5 SE 1018,1 30 0,0
22.05.2018 21:00:00 17,2 7,3 6 3 18 10 E 1018,4 30 0,0
22.05.2018 20:00:00 18,9 5,9 10 5 20 11 E 1018,9 30 0,0
22.05.2018 19:00:00 20,1 6,2 10 5 20 11 E 1019,3 25 0,0
22.05.2018 18:00:00 21,5 6,9 10 5 19 10 ESE 1019,9 36 0,0
22.05.2018 17:00:00 21,3 7,9 13 7 18 10 SE 1020,2 27 0,0
22.05.2018 16:00:00 21,5 7,6 9 5 18 10 SE 1020,8 34 0,0
22.05.2018 15:00:00 21,9 8,2 8 4 15 8 SE 1021,4 26 0,0
22.05.2018 14:00:00 21,8 7,5 10 6 19 10 SSE 1022,1 20 0,0
22.05.2018 13:00:00 21,1 8,6 8 5 17 9 ESE 1022,8 17 0,0
22.05.2018 12:00:00 19,9 7,2 10 5 23 12 SE 1023,4 15 0,0
22.05.2018 11:00:00 19,8 8,2 14 7 23 12 SE 1023,8 10 0,0
22.05.2018 10:00:00 20,5 5,3 7 4 12 6 SE 1024,2 19 0,0
22.05.2018 09:00:00 17,4 8,1 3 2 11 6 E 1024,7 27 0,0
22.05.2018 08:00:00 14,3 11,0 6 4 11 6 ESE 1025,1 24 0,0
22.05.2018 07:00:00 10,5 10,1 8 5 11 6 ENE 1025,6 26 0,0
22.05.2018 06:00:00 7,9 7,6 6 3 9 5 NE 1025,8 23 0,0
22.05.2018 05:00:00 7,6 7,3 8 5 9 5 ENE 1026,0 13 0,0
22.05.2018 04:00:00 7,9 7,6 4 2 6 4 NNW 1026,0 18 0,0
22.05.2018 03:00:00 8,6 8,2 5 3 6 3 N 1026,4 19 0,0
22.05.2018 02:00:00 9,5 9,0 0 0 11 6 N 1026,8 21 0,0
22.05.2018 01:00:00 10,6 9,5 10 5 12 6 S 1026,8 34 0,0
22.05.2018 00:00:00 11,9 8,4 9 5 16 9 SE 1026,8 37 0,0
21.05.2018 23:00:00 13,1 5,9 6 3 10 5 WSW 1026,6 34 0,0
21.05.2018 22:00:00 15,7 5,6 8 4 11 6 SSW 1026,3 35 0,0
21.05.2018 21:00:00 20,0 3,0 8 5 18 10 WSW 1026,2 37 0,0
21.05.2018 20:00:00 22,2 -0,8 14 8 26 14 SW 1026,3 17 0,0
21.05.2018 19:00:00 22,4 1,2 15 8 26 14 SSW 1026,5 40 0,0
21.05.2018 18:00:00 22,9 1,0 16 9 29 16 SW 1026,9 28 0,0
21.05.2018 17:00:00 23,1 0,2 22 12 36 19 SSW 1027,2 29 0,0
21.05.2018 16:00:00 23,1 2,2 19 11 35 19 SW 1027,6 28 0,0
21.05.2018 15:00:00 22,4 2,6 18 10 - - SW 1028,0 32 0,0
21.05.2018 14:00:00 22,0 3,4 - - - - - 1028,3 28 0,0
21.05.2018 13:00:00 20,9 4,8 - - - - - 1028,7 26 0,0
21.05.2018 12:00:00 20,0 4,1 - - - - - 1029,0 24 0,0
21.05.2018 11:00:00 19,7 5,3 - - - - - 1028,9 33 0,0
21.05.2018 10:00:00 18,2 6,3 - - - - - 1028,8 38 0,0
21.05.2018 09:00:00 15,6 8,0 - - - - - 1028,6 37 0,0
21.05.2018 08:00:00 14,1 7,5 - - - - - 1028,5 38 0,0
21.05.2018 07:00:00 10,3 7,7 - - - - - 1028,2 43 0,0
21.05.2018 06:00:00 6,9 5,0 - - - - - 1027,9 48 0,0
21.05.2018 05:00:00 6,4 4,4 - - - - - 1027,9 38 0,0
21.05.2018 04:00:00 7,6 4,0 - - - - - 1027,7 46 0,0
21.05.2018 03:00:00 8,6 4,9 - - - - - 1027,7 48 0,0
21.05.2018 02:00:00 8,9 4,1 - - - - - 1027,5 46 0,0
21.05.2018 01:00:00 9,8 3,7 - - - - - 1027,3 27 0,0
21.05.2018 00:00:00 11,3 3,3 - - - - - 1027,0 42 0,0
20.05.2018 23:00:00 13,6 4,1 - - - - - 1026,7 46 0,0
20.05.2018 22:00:00 15,0 2,6 - - - - - 1026,5 44 0,0
20.05.2018 21:00:00 17,1 1,8 - - - - - 1026,1 39 0,0
20.05.2018 20:00:00 17,7 1,7 - - - - - 1026,0 44 0,0
20.05.2018 19:00:00 18,4 2,2 - - - - - 1026,1 32 0,0
20.05.2018 18:00:00 19,0 2,2 - - - - - 1026,2 36 0,0
20.05.2018 17:00:00 19,2 3,1 22 12 - - N 1026,0 39 0,0
20.05.2018 16:00:00 18,9 2,9 16 9 32 17 N 1025,9 33 0,0
20.05.2018 15:00:00 18,7 2,4 16 9 - - N 1026,2 35 0,0
20.05.2018 14:00:00 18,3 2,2 18 10 - - N 1026,4 26 0,0
20.05.2018 13:00:00 18,0 2,5 18 10 - - N 1026,6 28 0,0
20.05.2018 12:00:00 18,5 0,9 - - - - - 1026,4 33 0,0
20.05.2018 11:00:00 17,2 1,7 31 17 - - N 1026,2 35 0,0
20.05.2018 10:00:00 16,5 0,8 36 19 - - N 1025,8 38 0,0
20.05.2018 09:00:00 14,4 2,3 31 17 44 24 N 1025,3 43 0,0
20.05.2018 08:00:00 12,7 3,0 37 20 48 26 N 1024,9 41 0,0
20.05.2018 07:00:00 10,8 3,1 37 20 48 26 N 1024,4 42 0,0
20.05.2018 06:00:00 7,9 3,1 38 21 48 26 N 1023,8 47 0,0
20.05.2018 05:00:00 7,0 2,0 30 16 46 25 N 1023,4 48 0,0
20.05.2018 04:00:00 7,6 2,6 30 16 51 28 N 1022,9 49 0,0
20.05.2018 03:00:00 10,5 1,2 37 20 52 28 N 1022,6 48 0,0
20.05.2018 02:00:00 11,2 1,3 33 18 54 29 N 1022,2 43 0,0
20.05.2018 01:00:00 10,3 2,4 30 16 - - N 1021,7 44 0,0
20.05.2018 00:00:00 9,5 5,8 16 8 - - NW 1021,3 41 0,0
19.05.2018 23:00:00 10,0 7,7 - - - - - 1020,8 39 -
19.05.2018 22:00:00 11,7 8,7 - - - - - 1020,1 42 -
19.05.2018 21:00:00 14,7 7,4 - - - - - 1019,4 23 0,0
19.05.2018 20:00:00 16,3 5,8 - - - - - 1019,2 31 0,0
19.05.2018 19:00:00 17,9 4,1 32 18 - - N 1019,2 43 0,0
19.05.2018 18:00:00 17,2 2,3 - - - - - 1019,2 42 0,0
19.05.2018 17:00:00 18,6 -1,1 36 19 - - N 1019,4 34 0,0
19.05.2018 16:00:00 18,4 -2,1 35 19 - - N 1019,5 30 0,0
19.05.2018 15:00:00 17,8 -0,9 23 12 - - NNW 1019,8 39 0,0
19.05.2018 14:00:00 17,0 -1,9 18 10 - - NNW 1019,7 36 0,0
19.05.2018 13:00:00 16,6 1,1 18 10 - - NNW 1019,9 34 0,0
19.05.2018 12:00:00 15,8 1,4 26 14 - - N 1019,9 38 0,0
19.05.2018 11:00:00 15,1 0,2 43 23 - - N 1019,9 42 0,0
19.05.2018 10:00:00 14,1 1,1 36 19 - - N 1019,6 45 0,0
19.05.2018 09:00:00 12,4 1,5 25 13 - - N 1019,5 41 0,0
19.05.2018 08:00:00 11,4 1,5 27 15 - - N 1019,0 48 0,0
19.05.2018 07:00:00 9,8 0,8 41 22 56 31 N 1018,4 38 0,0
19.05.2018 06:00:00 8,4 0,2 35 19 56 30 N 1018,1 43 0,0

tt = temperature
td = dewpoint
ff = wind speed
fx = gusts
dd = wind direction
ppp = reduced air pressure
vv = visibility
rr = precipitation

Next stations